Flagstaff, AZ

8:31 AM MST on June 22, 2017 (GMT -0700)
Flagstaff Pulliam

Weather History for KFLG - May, 2013

Change the Weather History Date:

Friday, May 10, 2013

  Actual Average Record
Temperature  
Mean Temperature 46 °F 50 °F  
Max Temperature 65 °F 66 °F 82 °F (1934)
Min Temperature 27 °F 34 °F 19 °F (1953)
Degree Days  
Heating Degree Days 19 15  
Month to date heating degree days 185 161  
Since 1 July heating degree days 6428 6517  
Cooling Degree Days 0 0  
Month to date cooling degree days 0 0  
Year to date cooling degree days 0 0  
Moisture  
Dew Point 28 °F    
Average Humidity 57    
Maximum Humidity 92    
Minimum Humidity 22    
Precipitation  
Precipitation T in 0.02 in 0.63 in (1944)
Month to date precipitation 0.23 0.22  
Year to date precipitation 5.23 7.70  
Snow  
Snow 0.00 in 0.00 in T in (2011)
Month to date snowfall T 0.5  
Since 1 July snowfall 69.7 101.5  
Snow Depth 0.00 in    
Sea Level Pressure  
Sea Level Pressure 30.10 in    
Wind  
Wind Speed 4 mph (NE)    
Max Wind Speed 16 mph    
Max Gust Speed 24 mph    
Visibility 10 miles    
Events      
T = Trace of Precipitation, MM = Missing Value Source: NWS Daily Summary

Daily Weather History Graph

Daily Weather History Graph

Search for Another Location

Airport or City:

Trip Planner

Search our weather history database for the weather conditions in past years. The results will help you decide how hot, cold, wet, or windy it might be!

Date:

Astronomy

May. 10, 2013 Rise Set
Actual Time 5:26 AM MST 7:20 PM MST
Civil Twilight 4:58 AM MST 7:47 PM MST
Nautical Twilight 4:25 AM MST 8:21 PM MST
Astronomical Twilight 3:49 AM MST 8:57 PM MST
Moon 5:53 AM MST (5/10) 8:11 PM MST (5/10)
Length of Visible Light 14h 49m
Length of Day
13h 53m
New Moon, 1% of the Moon is Illuminated
May 10
New Moon
May 17
First Quarter
May 24
Full
May 31
Last Quarter
Jun 8
New

Hourly Weather History & Observations

Time (MST) Temp. Dew Point Humidity Pressure Visibility Wind Dir Wind Speed Gust Speed Precip Events Conditions
12:57 AM 30.0 °F 27.0 °F 88% 30.10 in 10.0 mi Calm Calm - N/A   Clear
1:57 AM 28.9 °F 26.1 °F 89% 30.09 in 10.0 mi Calm Calm - N/A   Clear
2:57 AM 28.0 °F 26.1 °F 92% 30.11 in 10.0 mi Calm Calm - N/A   Clear
3:57 AM 28.9 °F 26.1 °F 89% 30.09 in 10.0 mi Calm Calm - N/A   Clear
4:57 AM 28.0 °F 25.0 °F 88% 30.09 in 10.0 mi Calm Calm - N/A   Clear
5:57 AM 28.9 °F 26.1 °F 89% 30.09 in 10.0 mi Calm Calm - N/A   Clear
6:57 AM 39.0 °F 34.0 °F 82% 30.09 in 10.0 mi Calm Calm - N/A   Clear
7:57 AM 50.0 °F 35.1 °F 57% 30.08 in 10.0 mi ENE 6.9 mph - N/A   Clear
8:57 AM 53.1 °F 33.1 °F 47% 30.09 in 10.0 mi ENE 8.1 mph - N/A   Clear
9:57 AM 55.9 °F 32.0 °F 40% 30.10 in 10.0 mi East 8.1 mph - N/A   Partly Cloudy
10:57 AM 60.1 °F 30.0 °F 32% 30.10 in 10.0 mi ENE 10.4 mph 16.1 mph N/A   Partly Cloudy
11:57 AM 57.0 °F 28.9 °F 34% 30.12 in 10.0 mi North 13.8 mph 20.7 mph N/A   Mostly Cloudy
12:57 PM 59.0 °F 27.0 °F 29% 30.11 in 10.0 mi SSE 3.5 mph - N/A   Partly Cloudy
1:57 PM 62.1 °F 27.0 °F 26% 30.08 in 10.0 mi Calm Calm - N/A   Scattered Clouds
2:57 PM 64.0 °F 25.0 °F 23% 30.07 in 10.0 mi NE 9.2 mph - N/A   Scattered Clouds
3:57 PM 63.0 °F 24.1 °F 23% 30.06 in 10.0 mi Variable 3.5 mph - 0.00 in   Mostly Cloudy
4:57 PM 63.0 °F 24.1 °F 23% 30.06 in 10.0 mi NE 16.1 mph 20.7 mph N/A   Scattered Clouds
5:57 PM 61.0 °F 28.9 °F 30% 30.09 in 10.0 mi NE 11.5 mph 19.6 mph N/A   Clear
6:57 PM 59.0 °F 27.0 °F 29% 30.08 in 10.0 mi NNE 8.1 mph - N/A   Clear
7:57 PM 52.0 °F 27.0 °F 38% 30.09 in 10.0 mi Calm Calm - N/A   Clear
8:57 PM 53.1 °F 30.0 °F 41% 30.13 in 10.0 mi NNE 6.9 mph - N/A   Mostly Cloudy
9:57 PM 48.9 °F 30.0 °F 48% 30.13 in 10.0 mi Calm Calm - N/A   Clear
10:57 PM 45.0 °F 30.0 °F 56% 30.13 in 10.0 mi Calm Calm - N/A   Clear
11:57 PM 42.1 °F 30.0 °F 62% 30.17 in 10.0 mi Calm Calm - N/A   Clear